• Processing (Info)

  • MPEC 2022-M39 : 2022 MS

    The following Minor Planet Electronic Circular may be linked-to from your own Web pages, but must not otherwise be redistributed electronically.

    A form allowing access to any MPEC is at the bottom of this page.


    Read MPEC 2022-M38 Read MPEC 2022-M40


    M.P.E.C. 2022-M39                                 Issued 2022 June 23, 10:08 UT
    
         The Minor Planet Electronic Circulars contain information on unusual
             minor planets and routine data on comets.  They are published
        on behalf of Division F of the International Astronomical Union by the
              Minor Planet Center, Smithsonian Astrophysical Observatory,
                              Cambridge, MA 02138, U.S.A.
    
                 Prepared using the Tamkin Foundation Computer Network
    
                                  MPC@CFA.HARVARD.EDU
                URL https://www.minorplanetcenter.net/    ISSN 1523-6714
    
                                     2022 MS                                 
    
    
    Observations:
         K22M00S  C2022 06 21.88564 16 13 01.02 +14 39 52.5          19.5 RoEM039K88
         K22M00S* C2022 06 21.89105 16 13 03.42 +14 39 22.6          19.7 RoEM039K88
         K22M00S KC2022 06 21.92562 16 13 19.10 +14 36 17.7          20.0 RoEM039K88
         K22M00S KC2022 06 21.92844 16 13 20.39 +14 36 01.9          20.1 RoEM039K88
         K22M00S KC2022 06 21.93126 16 13 21.65 +14 35 47.4          19.6 RoEM039K88
         K22M00S KC2022 06 21.93407 16 13 22.95 +14 35 31.9          19.8 RoEM039K88
         K22M00S KC2022 06 21.94287 16 13 26.99 +14 34 43.3          20.2 RoEM039K88
         K22M00S KC2022 06 21.94709 16 13 28.86 +14 34 20.2          20.1 RoEM039K88
         K22M00S KC2022 06 21.96066 16 13 35.24 +14 33 05.9          19.8 RoEM039K88
         K22M00S KC2022 06 21.96477816 13 40.807+14 32 37.86         20.5 GVEM039J95
         K22M00S KC2022 06 21.96535 16 13 37.45 +14 32 39.9          19.9 RoEM039K88
         K22M00S KC2022 06 21.96793516 13 42.281+14 32 19.57         19.9 GVEM039J95
         K22M00S KC2022 06 21.97027 16 13 39.69 +14 32 13.2          20.1 RoEM039K88
         K22M00S KC2022 06 21.97068616 13 40.92 +14 32 26.1          19.7 GVEM039104
         K22M00S KC2022 06 21.97111016 13 43.745+14 32 03.05         20.2 GVEM039J95
         K22M00S KC2022 06 21.97175116 13 43.42 +14 32 21.7          20.2 GXEM039I93
         K22M00S KC2022 06 21.97432116 13 45.238+14 31 45.77         19.7 GVEM039J95
         K22M00S KC2022 06 21.97595716 13 45.35 +14 31 58.3          20.2 GXEM039I93
         K22M00S KC2022 06 21.97820716 13 44.41 +14 31 44.8          19.9 GVEM039104
         K22M00S KC2022 06 21.98000816 13 47.24 +14 31 35.9          19.7 GXEM039I93
         K22M00S KC2022 06 21.98447616 13 47.29 +14 31 10.0          19.8 GVEM039104
         K22M00S KC2022 06 22.00073116 14 06.104+14 33 40.90         19.9 GXEM039Y00
         K22M00S KC2022 06 22.00736016 14 08.988+14 33 05.86         19.3 GXEM039Y00
         K22M00S KC2022 06 22.01374816 14 11.766+14 32 32.29         20.0 GXEM039Y00
         K22M00S KC2022 06 22.12317816 15 08.662+14 19 07.57         19.6 GXEM039W34
         K22M00S KC2022 06 22.13171916 15 12.578+14 18 21.64         19.6 GXEM039W34
         K22M00S KC2022 06 22.13700716 15 16.01 +14 17 36.4          20.1 VuEM039H21
         K22M00S KC2022 06 22.13840416 15 16.66 +14 17 28.6          20.0 VuEM039H21
         K22M00S KC2022 06 22.13952816 15 16.080+14 17 38.69         19.7 GXEM039W34
         K22M00S KC2022 06 22.14120216 15 17.94 +14 17 13.1          20.2 VuEM039H21
         K22M00S KC2022 06 22.14241316 15 18.49 +14 17 06.5          20.2 VuEM039H21
         K22M00S  C2022 06 22.20750116 15 54.938+14 11 20.43         20.2 GVEM039654
         K22M00S  C2022 06 22.24251216 16 11.067+14 08 05.38         20.3 GVEM039654
         K22M00S KC2022 06 22.77767 16 21 20.00 +13 18 49.9          19.6 GXEM039221
         K22M00S KC2022 06 22.78973 16 21 26.17 +13 17 37.3          19.6 GXEM039221
         K22M00S KC2022 06 22.86953716 22 08.909+13 05 10.75         19.5 GVEM039B49
         K22M00S KC2022 06 22.87074716 22 09.511+13 05 03.70         19.5 GVEM039B49
         K22M00S KC2022 06 22.87214716 22 10.253+13 04 55.09         19.3 GVEM039B49
         K22M00S KC2022 06 22.87410316 22 11.254+13 04 43.07         19.3 GVEM039B49
         K22M00S KC2022 06 22.89175216 22 18.653+13 02 43.45         19.9 GVEM039K63
         K22M00S KC2022 06 22.89775116 22 24.04 +13 02 05.9                XEM039958
         K22M00S KC2022 06 22.89798016 22 21.908+13 02 04.66         19.7 GVEM039K63
         K22M00S KC2022 06 22.90416016 22 27.46 +13 01 26.6          20.1 GXEM039958
         K22M00S KC2022 06 22.90468116 22 25.361+13 01 22.38         20.3 GVEM039K63
         K22M00S KC2022 06 22.91057116 22 30.84 +13 00 45.6          19.5 GXEM039958
         K22M00S KC2022 06 22.91995 16 22 36.30 +12 59 57.3          19.7 GXEM039Z41
         K22M00S KC2022 06 22.92883 16 22 40.90 +12 59 00.7          19.5 GXEM039Z41
         K22M00S KC2022 06 22.93447 16 22 43.78 +12 58 25.3          19.9 GXEM039Z41
         K22M00S hC2022 06 22.96168716 22 54.85 +12 55 10.3          20.0 GVEM039L01
         K22M00S hC2022 06 22.96334216 22 55.69 +12 54 59.3          19.8 GVEM039L01
         K22M00S HC2022 06 22.96373 16 22 53.82 +12 59 21.7          20   GVEM039M21
         K22M00S hC2022 06 22.96499616 22 56.52 +12 54 48.4          20.1 GVEM039L01
         K22M00S KC2022 06 23.13313816 24 47.14 +12 36 55.6          19.7 VuEM039H21
         K22M00S KC2022 06 23.13490916 24 48.07 +12 36 44.0          19.9 VuEM039H21
         K22M00S KC2022 06 23.13695916 24 49.19 +12 36 30.3          20.2 VuEM039H21
    
    Observer details:
    104 San Marcello Pistoiese.  Observers P. Bacci, M. Maestripieri.  Measurers
        P. Bacci, L. Tesi, G. Fagioli.  0.60-m F4 Reflector + CCD.
    221 IAS Observatory, Hakos.  Observer D. Husar.  0.20-m f/2.8 reflector + CCD.
    654 Table Mountain Observatory, Wrightwood-PHMC.  Observers N. Evans, P. Choi,
        N. Saini, C. Zhai, R. Trahan, M. Shao.  1.0-m Reflector + CCD.
    958 Observatoire de Dax.  Observer P. Dupouy.  0.50-m f/4.5 Reflector + CCD.
    B49 Paus Observatory, Sabadell.  Observer J. Camarasa.  Measurer G.
        Duszanowicz.  0.30-m f/4.0 0.30-m + CCD.
    H21 Astronomical Research Observatory, Westfield.  Observer R. Holmes.
        Measurers T. Linder, R. Holmes, L. Horn.  0.76-m f/3.0 astrograph + CCD.
    I93 St Pardon de Conques.  Observer F. Losse.  0.40-m f/3.7 reflector + CCD.
    J95 Great Shefford.  Observer P. Birtwhistle.  0.41-m f/6.3 Schmidt-Cassegrain
        + CCD.
    K63 G. Pascoli Observatory, Castelvecchio Pascoli.  Observer R. Bacci.  0.41-m
        f/3.21 0.41m f/3.2  Newton + CCD.
    K88 GINOP-KHK, Piszkesteto.  Observer K. Sarneczky.  0.60-m Schmidt + CCD.
    L01 Visnjan Observatory, Tican.  Observer K. Korlevic.  1.0-m f/2.9 reflector
        + CCD.
    M21 Schiaparelli Southern Observatory, Hakos.  Observers A. Aletti, F.
        Bellini, L. Buzzi, G. Galli.  Measurer L. Buzzi.  0.36-m f/8.4 reflector +
        CCD.
    W34 Squirrel Valley Observatory, Columbus.  Observer R. L. Flynn.  0.36-m
        f/1.9 0.36 Aplanatic Schmidt Cassegrain + CCD.
    Y00 SONEAR Observatory, Oliveira.  Observer C. Jacques.  0.45-m f/2.9 0.45-m
        f/2.9 reflector + CCD.
    Z41 Irydeo Observatory, Camarma de Esteruelas.  Observer F. Calvo.  0.30-m
        f/5.9 reflector + CCD.
    
    Orbital elements:
    2022 MS                                                  Earth MOID = 0.0208 AU
    Epoch 2022 Aug. 9.0 TT = JDT 2459800.5                  Veres                   
    M  17.58069              (2000.0)            P               Q                  
    n   0.48889895     Peri.  182.26638     +0.21220131     +0.97043031             
    a   1.5958423      Node   100.00064     -0.89473965     +0.24027792             
    e   0.3499470      Incl.    6.70868     -0.39295236     -0.02305522             
    P   2.02           H   25.41          G   0.15           U   7                  
    Residuals in seconds of arc
    220621 K88  0.3+  0.3+    220621 I93  0.5+  0.4-    220622 B49  0.2-  0.2+
    220621 K88  0.2-  0.7-    220621 104  0.4-  0.1-    220622 K63  0.2+  0.5-
    220621 K88  0.2-  0.4+    220622 Y00  0.6+  1.0-    220622 958  1.0-  0.5-
    220621 K88  0.2-  0.2-    220622 Y00  0.4+  0.9-    220622 K63  0.4+  0.1+
    220621 K88  0.6-  0.7+    220622 Y00  0.2+  0.5-    220622 958  0.1+  0.6+
    220621 K88  0.5-  0.4+    220622 W34  0.2+  0.6-    220622 K63  0.2-  0.4+
    220621 K88  0.5-  0.2-    220622 W34  0.7+  0.3+    220622 958  0.6+  0.1+
    220621 K88  1.5-  0.2-    220622 H21  0.2-  0.1+    220622 Z41  0.6+  0.1+
    220621 K88  0.2-  0.1-    220622 H21  0.1-  0.0     220622 Z41  0.5+  0.1-
    220621 J95  0.1+  0.5+    220622 W34  0.1+  0.3+    220622 Z41  0.2-  0.4+
    220621 K88  0.2+  0.3-    220622 H21  0.2-  0.2-    220622 L01  0.7+  0.1+
    220621 J95  0.4+  0.6-    220622 H21  0.3-  0.1-    220622 L01  0.1+  0.1-
    220621 K88  0.7-  0.1+    220622 654  0.1+  0.0     220622 M21  0.5+  0.9-
    220621 104  0.7-  0.0     220622 654  0.1+  0.1+    220622 L01  0.7-  0.3-
    220621 J95  0.3+  0.1+    220622 221  0.7-  1.2+    220623 H21  0.1+  0.1+
    220621 I93  0.3-  0.3+    220622 221  0.4-  1.1+    220623 H21  0.2-  0.1+
    220621 J95  0.4+  0.3+    220622 B49  0.3+  0.5-    220623 H21  0.0   0.1-
    220621 I93  0.1-  0.1-    220622 B49  0.1-  0.1-
    220621 104  0.2-  0.1+    220622 B49  0.1+  0.1+
    
    Ephemeris:
    2022 MS                  a,e,i = 1.60, 0.35, 7                   q = 1.0374
    Date    TT    R. A. (2000) Decl.     Delta      r    Elong.  Phase     V
    2022 05 24    15 04 24.4 +22 33 09   0.1360  1.1122   134.6    40.4    22.9
    ...
    2022 06 08    15 16 23.4 +22 49 34   0.08470 1.0686   127.5    48.9    22.0
    ...
    2022 06 16    15 37 54.7 +20 13 11   0.05833 1.0525   127.8    49.7    21.2
    ...
    2022 06 22    16 14 00.8 +14 31 45   0.03960 1.0441   133.9    44.6    20.2
    2022 06 23    16 23 22.3 +12 53 20   0.03670 1.0430   135.9    42.7    20.0
    2022 06 24    16 34 11.8 +10 55 32   0.03391 1.0420   138.5    40.3    19.7
    ...
    2022 06 30    18 28 36.5 -11 23 32   0.02189 1.0381   168.1    11.6    17.9
    ...
    2022 07 08    22 33 44.2 -38 01 27   0.03079 1.0381   133.5    45.3    19.7
    ...
    2022 07 23    00 44 58.7 -37 25 21   0.07648 1.0544   118.3    58.0    22.0
    
    M. P. C. Staff               (C) Copyright 2022 MPC           M.P.E.C. 2022-M39
    


    Read MPEC 2022-M38 Read MPEC 2022-M40


    MPEC number:

    Enter an MPEC number in one of the following forms:

    • 1997-B01 (the full form)
    • J97B01 (the packed version of the full form)
    • B01 (the abbreviated form)